Flag for Germany Weather past 2 weeks in Aurich, Lower Saxony, Germany

Now
57 °F

Passing clouds.


Feels Like: 53 °F
Forecast: 44 / 57 °F
Wind: 23 mph from West

Location: Wittmundhaven

Current Time: May 28, 2015 at 5:08:59 PM

Latest Report: May 28, 2015 at 4:20 PM


Visibility: N/A

Pressure: 29.86 "Hg

Humidity: 59%

Dew point: 43 °F

Location of AurichLocation

Historic Weather in Aurich — Graph

°F

Aurich temperature yesterday

Maximum temperature yesterday: 59 °F (at 2:20 PM)
Minimum temperature yesterday: 46 °F (at 5:20 AM)
Average temperature yesterday: 54 °F

Past Weeks' High & Low Weather Summary

 TemperatureHumidityPressure
High66 °F (May 22, 3:20 PM)94% (May 16, 2:20 PM)30.30 "Hg (May 16, 2:20 PM)
Low37 °F (May 15, 3:20 AM)41% (May 17, 2:20 PM)29.53 "Hg (May 18, 9:20 PM)
Average51 °F74%30.02 "Hg
* Reported May 13 3:20 PM — May 28 3:20 PM, Aurich, Weather by CustomWeather, © 2015

Note: Actual official high and low records may vary slightly from our data, if they occured in-between our weather recording intervals... More about our weather records

Advertising

Aurich weather history for previous 24 hours

 ConditionsComfort  
Time TempWeatherWind HumidityBarometerVisibility
3:20 PM
Thu, May 28
57 °FScattered clouds.18 mph63%29.83 "HgN/A
2:20 PM55 °FBroken clouds.14 mph82%29.83 "HgN/A
1:20 PM52 °FDrizzle. Broken clouds.8 mph88%29.83 "HgN/A
12:52 PM52 °FDrizzle. Fog.18 mph82%29.83 "Hg2 mi
12:20 PM52 °FLight rain. Broken clouds.15 mph88%29.83 "HgN/A
11:20 AM57 °FLight rain. Partly sunny.15 mph67%29.83 "HgN/A
10:20 AM55 °FBroken clouds.16 mph72%29.83 "HgN/A
9:20 AM57 °FLight rain. Broken clouds.14 mph72%29.83 "HgN/A
8:20 AM55 °FBroken clouds.13 mph77%29.83 "HgN/A
7:20 AM54 °FBroken clouds.15 mph77%29.83 "HgN/A
6:20 AM54 °FBroken clouds.13 mph72%29.83 "HgN/A
5:20 AM50 °FPassing clouds.10 mph88%29.83 "HgN/A
4:20 AM50 °FPassing clouds.8 mph88%29.86 "HgN/A
3:20 AM50 °FPassing clouds.3 mph88%29.89 "HgN/A
2:20 AM50 °FPartly cloudy.5 mph88%29.92 "HgN/A
1:20 AM50 °FPartly cloudy.5 mph88%29.95 "HgN/A
12:20 AM52 °FPassing clouds.3 mph82%29.98 "HgN/A
11:20 PM
Wed, May 27
52 °FPartly cloudy.No wind82%29.98 "HgN/A
10:20 PM52 °FPartly sunny.2 mph77%30.01 "HgN/A
9:20 PM57 °FScattered clouds.5 mph59%30.04 "HgN/A
8:20 PM59 °FBroken clouds.8 mph55%30.04 "HgN/A
7:20 PM59 °FBroken clouds.7 mph55%30.07 "HgN/A
6:20 PM59 °FBroken clouds.12 mph51%30.09 "HgN/A
5:20 PM59 °FBroken clouds.8 mph51%30.12 "HgN/A
Weather by CustomWeather, © 2015

See weather overviewHow to use our weather pages